Location: Coupvray
(48.8929°N, 2.7967°E)
Time: 08:40:45
(UTC+00:00)

Cosmos 1869 Rocket - Pass Details

Date: 14 July 2020
Orbit: 606 x 632 km, 82.5° (Epoch: 14 August)

Event Time Altitude Azimuth Distance (km) Brightness Sun altitude
Exits shadow 02:04:43 22° 221° (SW) 1,339 4.7 -13.8°
Maximum altitude 02:07:12 46° 285° (WNW) 821 4.0 -13.5°
Drops below altitude 10° 02:11:25 10° 359° (N) 1,975 7.0 -13.2°
Sets 02:13:44 0° 5° (N) 2,887 8.2 -13.0°
